Home   Weather   Duluth   Past weeks
Flag for USA

Past Weather in Duluth, Minnesota, USA — Yesterday and Last 2 Weeks

Now
16 °F

Light snow. Overcast.


Feels Like: 3 °F
Forecast: 18 / 2 °F
Wind: 12 mph from West

Location: Sky Harbor Airport

Current Time: Feb 18, 2020 at 10:27:34 am

Latest Report: Feb 18, 2020 at 9:55 am


Visibility: 10 mi

Pressure: 30.17 "Hg

Humidity: 73%

Dew Point: 9 °F

Location of DuluthLocation

Past Weather in Duluth — Graph

°F

Duluth Temperature Yesterday

Maximum temperature yesterday: 27 °F (at 3:15 pm)
Minimum temperature yesterday: 10 °F (at 1:15 am)
Average temperature yesterday: 22 °F

High & Low Weather Summary for the Past Weeks

 TemperatureHumidityPressure
High34 °F (Feb 15, 3:55 pm)93% (Feb 7, 2:16 am)30.41 "Hg (Feb 7, 2:16 am)
Low-15 °F (Feb 13, 6:36 am)30% (Feb 8, 4:36 pm)29.62 "Hg (Feb 6, 2:35 pm)
Average15 °F64%30.03 "Hg
* Reported Feb 3 9:15 am — Feb 18 9:35 am, Duluth. Weather by CustomWeather, © 2020

Note: Actual official high and low records may vary slightly from our data, if they occured in-between our weather recording intervals... More about our weather records

Duluth Weather History for the Previous 24 Hours

Scroll right to see more
 ConditionsComfort  
Time TempWeatherWind HumidityBarometerVisibility
9:35 am
Tue, Feb 18
16 °FMostly cloudy.14 mph73%30.16 "Hg10 mi
9:15 am18 °FOvercast.15 mph68%30.16 "Hg10 mi
8:56 am18 °FLight snow. Overcast.13 mph73%30.15 "Hg10 mi
8:36 am18 °FLight snow. Overcast.14 mph73%30.14 "Hg10 mi
7:35 am18 °FLight snow. More clouds than sun.10 mph79%30.12 "Hg7 mi
7:15 am19 °FLight snow. Mostly cloudy.10 mph73%30.11 "Hg7 mi
6:55 am19 °FLight snow. Mostly cloudy.7 mph73%30.11 "Hg10 mi
6:35 am19 °FLight snow. Overcast.7 mph73%30.10 "Hg10 mi
5:56 am19 °FLight snow. Mostly cloudy.7 mph73%30.08 "Hg10 mi
5:36 am19 °FLight snow. Mostly cloudy.5 mph73%30.08 "Hg10 mi
5:16 am19 °FLight snow. Mostly cloudy.3 mph73%30.07 "Hg10 mi
4:56 am19 °FLight snow. Mostly cloudy.5 mph73%30.07 "Hg7 mi
4:35 am19 °FLight snow. Overcast.5 mph73%30.06 "Hg10 mi
4:15 am19 °FLight snow. Overcast.14 mph73%30.06 "Hg10 mi
3:55 am19 °FLight snow. Overcast.16 mph73%30.05 "Hg10 mi
3:35 am19 °FLight snow. Overcast.8 mph73%30.05 "Hg10 mi
3:16 am18 °FOvercast.9 mph79%30.04 "Hg10 mi
2:55 am18 °FMostly cloudy.8 mph79%30.04 "Hg10 mi
2:35 am16 °FMostly cloudy.9 mph79%30.04 "Hg10 mi
2:15 am18 °FMostly cloudy.8 mph73%30.03 "Hg10 mi
1:56 am18 °FMostly cloudy.9 mph79%30.02 "Hg10 mi
1:36 am19 °FOvercast.8 mph73%30.01 "Hg10 mi
12:56 am21 °FOvercast.6 mph68%30.01 "Hg10 mi
12:36 am21 °FPassing clouds.8 mph74%30.01 "Hg10 mi
12:15 am23 °FOvercast.7 mph68%30.00 "Hg10 mi
11:55 pm
Mon, Feb 17
23 °FOvercast.6 mph68%29.99 "Hg10 mi
11:36 pm23 °FOvercast.7 mph74%29.99 "Hg10 mi
11:15 pm25 °FMostly cloudy.6 mph69%29.98 "Hg10 mi
10:55 pm25 °FMostly cloudy.12 mph69%29.98 "Hg10 mi
10:35 pm25 °FOvercast.9 mph74%29.97 "Hg10 mi
10:15 pm25 °FOvercast.6 mph74%29.97 "Hg10 mi
9:55 pm27 °FOvercast.12 mph69%29.97 "Hg10 mi
9:35 pm27 °FLight snow. Mostly cloudy.10 mph74%29.96 "Hg10 mi
9:16 pm27 °FMostly cloudy.13 mph80%29.96 "Hg7 mi
8:55 pm27 °FOvercast.8 mph80%29.95 "Hg10 mi
8:35 pm25 °FMostly cloudy.6 mph86%29.95 "Hg10 mi
8:15 pm25 °FLight snow. Mostly cloudy.No wind86%29.95 "Hg10 mi
7:55 pm25 °FLight snow. Mostly cloudy.3 mph86%29.96 "Hg4 mi
7:36 pm25 °FLight snow. Overcast.No wind86%29.95 "Hg5 mi
7:16 pm25 °FLight snow. Overcast.No wind86%29.96 "Hg7 mi
6:35 pm25 °FLight snow. Mostly cloudy.No wind86%29.95 "Hg10 mi
6:16 pm25 °FLight snow. Mostly cloudy.No wind86%29.95 "Hg2 mi
5:55 pm25 °FLight snow. Overcast.No wind86%29.94 "Hg2 mi
5:36 pm25 °FLight snow. Overcast.No wind86%29.93 "Hg2 mi
5:15 pm25 °FLight snow. Mostly cloudy.3 mph86%29.93 "Hg1 mi
4:56 pm25 °FLight snow. Overcast.7 mph86%29.92 "Hg1 mi
4:36 pm27 °FLight snow. Overcast.3 mph74%29.92 "Hg2 mi
3:56 pm27 °FOvercast.3 mph74%29.92 "Hg10 mi
3:35 pm27 °FOvercast.6 mph74%29.91 "Hg10 mi
3:15 pm27 °FOvercast.5 mph69%29.91 "Hg10 mi
2:56 pm25 °FOvercast.5 mph74%29.91 "Hg10 mi
2:35 pm25 °FOvercast.5 mph74%29.92 "Hg10 mi
2:16 pm25 °FOvercast.6 mph74%29.92 "Hg10 mi
1:55 pm25 °FOvercast.5 mph74%29.92 "Hg10 mi
1:35 pm25 °FOvercast.6 mph74%29.92 "Hg10 mi
1:15 pm25 °FOvercast.5 mph69%29.93 "Hg10 mi
12:56 pm25 °FOvercast.5 mph69%29.93 "Hg10 mi
12:35 pm25 °FOvercast.6 mph69%29.94 "Hg10 mi
12:15 pm25 °FOvercast.5 mph74%29.95 "Hg10 mi
11:35 am23 °FOvercast.6 mph74%29.97 "Hg10 mi
11:16 am21 °FOvercast.8 mph86%29.97 "Hg10 mi
10:56 am21 °FCold.5 mph80%29.96 "Hg10 mi
10:36 am21 °FCold.7 mph80%29.96 "Hg10 mi
10:16 am21 °FCold.7 mph80%29.96 "Hg10 mi
Weather by CustomWeather, © 2020

See weather overview

Advertising